Погода в Астрахани

Погода в Астрахани : погода сейчас, прогноз погоды и архив. Всё, что Вы хотите узнать о погоде в Астрахани!

Хотите узнать прогноз погоды в Астрахани? Тогда Вам сюда: Погода в Астрахани

Поиск расширенной информации на нашем сайте:

Другие новости

Новости СМИ2

Главная страница сайта

Новости сайта

02.10.2013

Напоминаем, что на нашем новом сайте вы можете получить высокодетализированные прогнозы погоды по пунктам России, СНГ и мира (включающие важные для авиации метеовеличины, такие как направление и скорость ветра, видимость, явления погоды, количество и форма облачности, нижняя и верхняя граница облачности), а также ознакомиться с разнообразными материалами по авиационной метеорологии и подборкой полезных ссылок на эту тему.

Сайт Метеоцентр.Азия посвящён разработке технологий оптимизации авиаметеорологического обслуживания, включая проектирование и перспективное создание нескольких автоматизированных авиаметеорологических систем:
- система выпуска высокодетальных прогностических карт явлений погоды для нижнего воздушного пространства по России и ближнему зарубежью;
- система верификации прогнозов TAF (выпускаемых синоптиками официальных АМСГ РФ и ближнего зарубежья) и AUTOTAF (выпускаемых сайтом Метеоцентр.Азия) - выявление ошибок, онлайн-сопоставление с фактической погодой METAR, автоматическое внесение коррективов в прогнозы при резком отклонении фактической погоды от прогноза, подсчёт оправдываемости прогнозов по элементам и в целом;
- система обработки, анализа и отображения авиаметеорологической информации для применения провайдерами метеорологической информации.

Рекомендуем: http://angiosurgery.org/ флебология лечение вен.

Погода в Астрахани - сегодня

Время (UTC), дата Ветер
(°,м/с) 
Видим.   Явления Облачность Т
(°С)
Тd
(°С)
f(%) Тe
(°С)
Pmin
(гПа)
dP
(гПа)
Po
(мм)
O2
(г/м3)
Тmin Tmax R s Состояние
почвы
21 22.03.17 140 (ЮВ) 1000 м  слаб. морось  10/10 100 м 
[St]
+0.9 +0.6 98 1017.5  1.3  765  307           
00 23.03.17 130 (ЮВ) 2000 м  дымка{морось}  10/10 300 м 
[St]
+0.8 +0.3 96 1018.9  1.3  766  308           
03 23.03.17 110 (В) 4000 м  дымка  10/10 300 м 
[St]
+0.8 -0.4 92 +1  1020.2  1.4  767  308  +0.7    0.3  <0.5  мокрый или
старый снег
10-40% 
06 23.03.17 030 (СВ) 4000 м  в посл. час дождь  10/6 300 м средняя 
[Frnb|As op]
+2 -0.1 86 +1  1021.7  1.5  768  307           
09 23.03.17 360 (С) 4000 м  слаб. морось  10/10 300 м 
[St]
+4.3 +3 91 +4  1021.9  0.1  768  304           
12 23.03.17 090 (В) 10 км  {дождь, морось}  9/9 600 м кучево-дожд. 
[Cb calv]
+7.1 +3.5 78 +8  1022.1  0.2  769  301           
15 23.03.17 150 (ЮВ) 10 км    6/4 600 м кучево-дожд., средняя 
[Cb calv|Ac trans]
+5.3 +1.9 79 +5  1023.5  1.4  770  304    +7.6  0.3     
18 23.03.17 170 (Ю) 4000 м  дымка  3/0 средняя 
[Ac trans]
+2 +1.4 96 +3  1025.1  1.7  771  308           
21 23.03.17 140 (ЮВ) 0200 м  туман [диам. гололёда 0 мм]  ?/?  
-0.5 -0.6 99 1025.7  0.6  771  311           
00 24.03.17 тихо ()   0500 м  туман [диам. гололёда 1 мм]  ?/?  
-2.2 -2.3 99 -2  1025.6  -0.1  771  314           
03 24.03.17 270 (З) 2000 м  в посл. час туман [диам. гололёда 2 мм]  9/9 300 м 
[St]
-2.2 -2.3 99 -2  1026.7  1.1  772  314  -2.5         
06 24.03.17 250 (З) 4000 м  дымка{туман}  8/0 средняя, верхняя 
[Ac trans|Ci fib]
+3.3 +3 98 +4  1027.1  0.4  772  307           
09 24.03.17 330 (СЗ) 10 км    9/6 600 м кучево-дожд., средняя 
[Cb cap|Ac trans]
+10.6 +3.3 61 +11  1026.7  -0.5  772  299           
12 24.03.17 280 (З) 10 км    8/4 600 м кучево-дожд., средняя, верхняя 
[Cb cap|Ac trans|Ci fib]
+12.2 +3.2 54 +13  1025.1  -1.6  771  297           
15 24.03.17 330 (СЗ) 10 км    8/8 1000 м 
[Sc]
+11 +2.6 56 +12  1024.8  -0.4  770  298    +12.6       
18 24.03.17 110 (В) 4000 м  дымка  4/0 средняя 
[Ac trans]
+4.7 +2.9 88 +4  1025.2  0.6  771  305           
21 24.03.17 130 (ЮВ) 4000 м  дымка  4/0 средняя 
[Ac trans]
+2.8 +2.1 95 +2  1023.6  -1.6  770  307           
00 25.03.17 150 (ЮВ) 4000 м  дымка  9/9 600 м 
[St]
+3.8 +2.8 93 +3  1022.2  -1.5  769  305           
03 25.03.17 160 (Ю) 4000 м  дымка  10/10 600 м 
[Sc]
+4.1 +2.9 92 +3  1021.3  -0.9  768  304  +2.5         
06 25.03.17 150 (ЮВ) 10 км    8/8 600 м кучево-дожд. 
[Cb cap]
+6.9 +1.5 68 +5  1019.7  -1.6  767  301           
09 25.03.17 170 (Ю) 4{10}  10 км    10/10 600 м кучево-дожд. 
[Cb cap]
+7.1 +1.9 69 +6  1018.1  -1.6  766  300           
12 25.03.17 160 (Ю) 10 км    9/8 600 м кучево-дожд., средняя 
[Cb cap|Ac trans]
+8.8 +2.1 63 +8  1015.6  -2.6  764  298           
15 25.03.17 140 (ЮВ) 10 км    9/8 1000 м средняя 
[Sc|Ac trans]
+7.9 +2.3 68 +7  1014.4  -1.1  763  298    +9.4       
18 25.03.17 150 (ЮВ) 10 км    10/10 1000 м 
[Sc]
+5.7 +2.5 80 +5  1014.3  -0.1  763  301           
21 25.03.17 180 (Ю) 4000 м  слаб. дождь  10/8 300 м средняя 
[Frnb|As trans]
+5.1 +3.5 89 +5  1014.1  -0.2  763  301           
Время (UTC), дата Ветер
(°,м/с) 
Видим.   Явления Облачность Т
(°С)
Тd
(°С)
f(%) Тe
(°С)
Pmin
(гПа)
dP
(гПа)
Po
(мм)
O2
(г/м3)
Тmin Tmax R s Состояние
почвы

Для получения пояснительной информации подведите курсор к названию столбца.

ПОГОДА в Астрахани - архив

Всё, что Вы хотите узнать о погоде в Астрахани - удобно и подробно!

Выберите нужную дату (начиная с 1 января 2015* года) и нажмите кнопку "Найти".
Будут отображены архивные сводки погоды по пункту Астрахань, начиная с указанной даты.


Отображать данные в формате CSV (для использования в таблицах Excel)


Внимание! Наш архив погоды предназначен исключительно для личного некоммерческого использования в познавательных целях. Если Вам необходимы официальные справки о состоянии погоды (для производственных, юридических, коммерческих и т.п. целей), обращайтесь в органы Росгидромета.

*Примечание: данная дата относится к архиву по метеостанциям СССР (Россия, СНГ, Балтия).
Архив по метеостанциям Зарубежной Европы и Азии (кроме Китая) хранится 10 дней, по другим регионам земного шара (Китай, Африка, Америка, Австралия, Океания) - 1 день.

Астрахань - район местоположения метеостанции


Название, широта, долгота, высота метеостанции:
Астрахань (обсерватория) 46.3°ш. 47.9°д. -23 м над ур. моря [Российская Федерация]

Дополнительная информация

В oтличие oт бoльшинства пoгoдных сайтoв мы публикуем пoдрoбную метеoинфoрмацию в детальнoм прoфессиoнальнoм фoрмате.

Характеристики температуры и влажнoсти вoздуха измеряются на высoте 2 м в тени вдали oт зданий и деревьев.
Скoрoсть ветра измеряется на высoте 10 м (на урoвне рoста челoвека скoрoсть ветра ниже в 1.5-2 раза). Если метеoстанция нахoдится в гoрoде или в лесу, тo скoрoсть ветра занижена на 2-4 м/с пo сравнению с oткрытым местoм. Скoрoсть ветра над акватoриями крупных рек и oзёр, а также на вершинах хoлмoв на 2-5 м/с выше, чем в oбычных услoвиях.
Атмoсфернoе давление в разных тoчках местнoсти мoжет значительнo oтличаться oт давления на метеoстанции, в зависимoсти oт услoвий рельефа (при пoдъёме на 10 м давление пoнижается примернo на 1 мм рт.ст.).